FW6909 Weather Reports


time (UTC)temp
C
wind
direction
speed
KPH
gust
KPH
rain 1hr
cm
rain 24hr
cm
rain mn
cm
humidity
%
barometer
mb
20260506222530 7 143 0.0 3.2 0.00 0.00 0.00 76 1013.6
20260506222029 7 145 0.0 3.2 0.00 0.00 0.00 76 1013.7
20260506221541 7 146 0.0 1.6 0.00 0.00 0.00 76 1013.6
20260506221030 7 0 0.0 1.6 0.00 0.00 0.00 76 1013.5
20260506220532 7 0 0.0 0.0 0.00 0.00 0.00 76 1013.5
20260506220039 7 0 0.0 0.0 0.00 0.00 0.00 75 1013.6
20260506215529 7 0 0.0 0.0 0.00 0.00 0.00 75 1013.6
20260506215034 7 0 0.0 0.0 0.00 0.00 0.00 75 1013.6
20260506214541 7 0 0.0 1.6 0.00 0.00 0.00 74 1013.6
20260506214032 7 0 0.0 1.6 0.00 0.00 0.00 74 1013.5
20260506213530 7 0 0.0 1.6 0.00 0.00 0.00 74 1013.5
20260506213057 7 0 0.0 1.6 0.00 0.00 0.00 74 1013.6
20260506212530 7 0 0.0 0.0 0.00 0.00 0.00 73 1013.7
20260506212030 8 0 0.0 0.0 0.00 0.00 0.00 73 1013.6
20260506211540 8 0 0.0 1.6 0.00 0.00 0.00 73 1013.6
20260506211029 8 0 0.0 1.6 0.00 0.00 0.00 72 1013.7
20260506210530 8 0 0.0 0.0 0.00 0.00 0.00 72 1013.7
20260506210039 8 0 0.0 0.0 0.00 0.00 0.00 72 1013.6
20260506205530 8 0 0.0 0.0 0.00 0.00 0.00 71 1013.6
20260506205031 8 0 0.0 1.6 0.00 0.00 0.00 70 1013.6
20260506204538 8 0 0.0 3.2 0.00 0.00 0.00 70 1013.7
20260506204030 8 0 0.0 3.2 0.00 0.00 0.00 69 1013.6
20260506203530 8 0 0.0 3.2 0.00 0.00 0.00 69 1013.5
20260506203044 8 0 0.0 1.6 0.00 0.00 0.00 68 1013.6
20260506202534 9 0 0.0 0.0 0.00 0.00 0.00 68 1013.6
20260506202031 9 0 0.0 0.0 0.00 0.00 0.00 68 1013.5
20260506201544 9 0 0.0 0.0 0.00 0.00 0.00 68 1013.5
20260506201033 9 0 0.0 0.0 0.00 0.00 0.00 68 1013.6
20260506200530 9 0 0.0 0.0 0.00 0.00 0.00 67 1013.6
20260506200035 9 0 0.0 0.0 0.00 0.00 0.00 66 1013.6
20260506195530 10 0 0.0 1.6 0.00 0.00 0.00 66 1013.5
20260506195030 10 0 0.0 1.6 0.00 0.00 0.00 65 1013.5
20260506194536 10 0 0.0 1.6 0.00 0.00 0.00 64 1013.6
20260506194033 10 240 0.0 1.6 0.00 0.00 0.00 64 1013.6
20260506193533 10 0 0.0 1.6 0.00 0.00 0.00 64 1013.5
20260506193037 10 0 0.0 3.2 0.00 0.00 0.00 63 1013.4
20260506192530 10 0 0.0 3.2 0.00 0.00 0.00 63 1013.5
20260506192030 10 0 0.0 3.2 0.00 0.00 0.00 63 1013.5
20260506191539 10 0 0.0 3.2 0.00 0.00 0.00 63 1013.5
20260506191031 10 279 0.0 3.2 0.00 0.00 0.00 62 1013.5
20260506190534 10 0 0.0 4.8 0.00 0.00 0.00 61 1013.5
20260506190043 10 334 1.6 4.8 0.00 0.00 0.00 60 1013.5
20260506185532 10 279 1.6 4.8 0.00 0.00 0.00 60 1013.5
20260506185031 10 269 0.0 6.4 0.00 0.00 0.00 60 1013.4
20260506184549 10 262 3.2 6.4 0.00 0.00 0.00 59 1013.5
20260506184032 11 288 3.2 6.4 0.00 0.00 0.00 58 1013.5
20260506183532 11 288 1.6 4.8 0.00 0.00 0.00 58 1013.5
20260506183050 11 297 0.0 4.8 0.00 0.00 0.00 59 1013.4
20260506182531 11 258 1.6 6.4 0.00 0.00 0.00 58 1013.3
20260506182031 11 13 1.6 6.4 0.00 0.00 0.00 58 1013.2
20260506181600 11 293 3.2 8.0 0.00 0.00 0.00 57 1013.3
20260506181032 11 206 1.6 8.0 0.00 0.00 0.00 57 1013.3
20260506180532 11 291 3.2 8.0 0.00 0.00 0.00 56 1013.3
20260506180044 11 304 1.6 6.4 0.00 0.00 0.00 56 1013.2
20260506175532 11 0 1.6 4.8 0.00 0.00 0.00 56 1013.2
20260506175037 11 254 1.6 3.2 0.00 0.00 0.00 54 1013.1
20260506174543 11 0 0.0 3.2 0.00 0.00 0.00 56 1013.3
20260506174032 11 0 0.0 1.6 0.00 0.00 0.00 55 1013.2
20260506173532 11 224 0.0 1.6 0.00 0.00 0.00 55 1013.3
20260506173054 11 0 0.0 0.0 0.00 0.00 0.00 55 1013.2
20260506172532 11 0 0.0 0.0 0.00 0.00 0.00 54 1013.3
20260506172031 11 0 0.0 0.0 0.00 0.00 0.00 54 1013.3
20260506171536 11 0 0.0 1.6 0.00 0.00 0.00 52 1013.3
20260506171032 11 0 0.0 1.6 0.00 0.00 0.00 52 1013.4
20260506170533 11 0 0.0 1.6 0.00 0.00 0.00 50 1013.4
20260506170040 12 0 0.0 1.6 0.00 0.00 0.00 49 1013.4
20260506165533 12 0 0.0 3.2 0.00 0.00 0.00 49 1013.4
20260506165035 12 84 0.0 3.2 0.00 0.00 0.00 50 1013.5
20260506164538 12 126 0.0 1.6 0.00 0.00 0.00 50 1013.5
20260506164031 12 105 0.0 1.6 0.00 0.00 0.00 52 1013.5
20260506163531 12 0 0.0 1.6 0.00 0.00 0.00 51 1013.4
20260506163043 12 0 0.0 1.6 0.00 0.00 0.00 50 1013.5
20260506162531 12 0 0.0 1.6 0.00 0.00 0.00 49 1013.4
20260506162033 12 0 0.0 1.6 0.00 0.00 0.00 48 1013.5
20260506161546 12 0 0.0 1.6 0.00 0.00 0.00 49 1013.4
20260506161031 12 0 0.0 3.2 0.00 0.00 0.00 49 1013.6
20260506160532 12 0 0.0 3.2 0.00 0.00 0.00 48 1013.6
20260506160044 12 269 0.0 3.2 0.00 0.00 0.00 47 1013.6
20260506155534 12 0 0.0 3.2 0.00 0.00 0.00 47 1013.7
20260506155032 12 269 0.0 3.2 0.00 0.00 0.00 50 1013.7
20260506154547 12 143 0.0 3.2 0.00 0.00 0.00 48 1013.8
20260506154032 12 139 0.0 3.2 0.00 0.00 0.00 49 1013.9
20260506153531 12 74 0.0 1.6 0.00 0.00 0.00 46 1014.0
20260506153105 12 32 0.0 1.6 0.00 0.00 0.00 47 1014.0
20260506152531 12 0 0.0 1.6 0.00 0.00 0.00 45 1014.0
20260506152031 12 44 0.0 1.6 0.00 0.00 0.00 46 1014.1
20260506151544 12 0 0.0 3.2 0.00 0.00 0.00 46 1014.0
20260506151038 12 0 0.0 4.8 0.00 0.00 0.00 46 1014.1
20260506150531 12 0 0.0 8.0 0.00 0.00 0.00 47 1014.1
20260506150052 12 0 0.0 8.0 0.00 0.00 0.00 46 1014.2
20260506145531 12 84 3.2 8.0 0.00 0.00 0.00 45 1014.3
20260506145032 12 89 0.0 3.2 0.00 0.00 0.00 45 1014.3
20260506144536 12 12 0.0 4.8 0.00 0.00 0.00 47 1014.3
20260506144032 12 64 1.6 4.8 0.00 0.00 0.00 46 1014.3
20260506143532 12 319 1.6 6.4 0.00 0.00 0.00 46 1014.2
20260506143044 12 0 1.6 6.4 0.00 0.00 0.00 47 1014.4
20260506142532 11 65 1.6 6.4 0.00 0.00 0.00 46 1014.4
20260506142032 12 71 0.0 12.9 0.00 0.00 0.00 46 1014.4
20260506141545 12 139 6.4 12.9 0.00 0.00 0.00 45 1014.5
20260506141031 12 0 0.0 3.2 0.00 0.00 0.00 45 1014.5
20260506140533 12 82 1.6 3.2 0.00 0.00 0.00 44 1014.6
20260506140042 12 24 0.0 3.2 0.00 0.00 0.00 44 1014.7
20260506135531 12 248 0.0 8.0 0.00 0.00 0.00 45 1014.6
20260506135031 12 81 3.2 8.0 0.00 0.00 0.00 44 1014.7
20260506134543 12 0 0.0 4.8 0.00 0.00 0.00 46 1014.9
20260506134033 12 109 1.6 4.8 0.00 0.00 0.00 44 1014.9
20260506133531 12 152 0.0 6.4 0.00 0.00 0.00 45 1014.8
20260506133048 12 46 1.6 11.3 0.00 0.00 0.00 45 1014.8
20260506132533 12 65 6.4 11.3 0.00 0.00 0.00 45 1014.9
20260506132032 12 349 1.6 9.7 0.00 0.00 0.00 45 1014.9
20260506131552 12 87 4.8 9.7 0.00 0.00 0.00 44 1014.9
20260506131032 12 326 1.6 8.0 0.00 0.00 0.00 45 1014.9
20260506130532 12 278 3.2 11.3 0.00 0.00 0.00 46 1015.1
20260506130043 12 88 3.2 11.3 0.00 0.00 0.00 47 1015.1
20260506125532 12 82 8.0 12.9 0.00 0.00 0.00 45 1015.2
20260506125034 12 95 6.4 12.9 0.00 0.00 0.00 44 1015.1
20260506124535 12 61 1.6 12.9 0.00 0.00 0.00 45 1015.1
20260506124035 12 162 6.4 12.9 0.00 0.00 0.00 45 1015.2
20260506123531 12 281 0.0 8.0 0.00 0.00 0.00 46 1015.2
20260506123042 11 138 3.2 16.1 0.00 0.00 0.00 45 1015.2
20260506122531 11 95 3.2 16.1 0.00 0.00 0.00 44 1015.3
20260506122031 12 86 1.6 9.7 0.00 0.00 0.00 44 1015.5
20260506121539 11 53 1.6 14.5 0.00 0.00 0.00 46 1015.3
20260506121033 11 152 4.8 14.5 0.00 0.00 0.00 44 1015.5
20260506120534 11 79 3.2 11.3 0.00 0.00 0.00 45 1015.4
20260506120040 11 75 3.2 11.3 0.00 0.00 0.00 46 1015.4
20260506115534 10 30 4.8 12.9 0.00 0.00 0.00 47 1015.5
20260506115031 11 65 6.4 12.9 0.00 0.00 0.00 45 1015.4
20260506114536 10 100 1.6 11.3 0.00 0.00 0.00 46 1015.4
20260506114031 10 267 3.2 11.3 0.00 0.00 0.00 46 1015.5
20260506113531 10 68 4.8 12.9 0.00 0.00 0.00 45 1015.6
20260506113041 10 122 6.4 12.9 0.00 0.00 0.00 45 1015.7
20260506112531 10 106 6.4 14.5 0.00 0.00 0.00 44 1015.8
20260506112035 10 106 4.8 14.5 0.00 0.00 0.00 44 1015.8
20260506111535 10 128 3.2 14.5 0.00 0.00 0.00 45 1015.8
20260506111031 10 336 3.2 14.5 0.00 0.00 0.00 47 1015.8
20260506110531 10 82 8.0 14.5 0.00 0.00 0.00 46 1015.9
20260506110038 10 105 6.4 12.9 0.00 0.00 0.00 45 1016.0
20260506105531 10 71 4.8 11.3 0.00 0.00 0.00 45 1016.0
20260506105035 10 103 4.8 11.3 0.00 0.00 0.00 45 1015.9
20260506104536 10 34 3.2 14.5 0.00 0.00 0.00 46 1016.0
20260506104030 10 56 3.2 14.5 0.00 0.00 0.00 47 1016.0
20260506103531 10 65 4.8 12.9 0.00 0.00 0.00 46 1016.1
20260506103039 10 98 4.8 12.9 0.00 0.00 0.00 47 1016.0
20260506102532 10 82 6.4 12.9 0.00 0.00 0.00 47 1016.0
20260506102031 10 63 1.6 4.8 0.00 0.00 0.00 48 1016.1
20260506101543 10 148 1.6 11.3 0.00 0.00 0.00 50 1016.2
20260506101031 10 316 3.2 11.3 0.00 0.00 0.00 53 1016.3
20260506100531 9 82 4.8 14.5 0.00 0.00 0.00 53 1016.3
20260506100042 9 59 3.2 14.5 0.00 0.00 0.00 53 1016.4
20260506095531 9 107 4.8 14.5 0.00 0.00 0.00 53 1016.5
20260506095030 8 75 4.8 14.5 0.00 0.00 0.00 54 1016.5
20260506094541 9 70 6.4 11.3 0.00 0.00 0.00 55 1016.5
20260506094030 8 114 3.2 14.5 0.00 0.00 0.00 55 1016.4
20260506093533 8 109 3.2 14.5 0.00 0.00 0.00 55 1016.5
20260506093035 8 67 6.4 14.5 0.00 0.00 0.00 54 1016.6
20260506092535 8 58 8.0 14.5 0.00 0.00 0.00 54 1016.6
20260506092031 8 87 4.8 12.9 0.00 0.00 0.00 55 1016.8
20260506091551 8 82 4.8 9.7 0.00 0.00 0.00 56 1016.7
20260506091032 8 75 4.8 12.9 0.00 0.00 0.00 56 1016.7
20260506090531 8 133 4.8 12.9 0.00 0.00 0.00 57 1016.6
20260506090045 7 79 6.4 11.3 0.00 0.00 0.00 57 1016.7
20260506085531 7 110 4.8 12.9 0.00 0.00 0.00 56 1016.8
20260506085030 7 44 4.8 12.9 0.00 0.00 0.00 56 1016.9
20260506084547 7 79 4.8 11.3 0.00 0.00 0.00 57 1017.0
20260506084031 7 105 6.4 14.5 0.00 0.00 0.00 56 1017.0
20260506083533 7 109 3.2 14.5 0.00 0.00 0.00 57 1017.0
20260506083038 7 78 6.4 14.5 0.00 0.00 0.00 58 1016.9
20260506082530 7 82 6.4 12.9 0.00 0.00 0.00 59 1016.8
20260506082031 7 107 4.8 14.5 0.00 0.00 0.00 60 1016.9
20260506081545 7 82 8.0 14.5 0.00 0.00 0.00 60 1017.0
20260506081032 7 61 8.0 14.5 0.00 0.00 0.00 60 1016.9
20260506080531 7 46 4.8 14.5 0.00 0.00 0.00 62 1016.7
20260506073042 6 88 6.4 12.9 0.00 0.00 0.00 64 1016.7
20260506072534 6 75 4.8 12.9 0.00 0.00 0.00 64 1016.7
20260506072031 6 82 4.8 12.9 0.00 0.00 0.00 65 1016.7
20260506071538 6 65 6.4 12.9 0.00 0.00 0.00 65 1016.7
20260506071033 6 114 6.4 12.9 0.00 0.00 0.00 66 1016.7
20260506070531 6 127 4.8 9.7 0.00 0.00 0.00 67 1016.9
20260506062031 6 68 1.6 8.0 0.00 0.00 0.00 69 1016.7
20260506061545 6 113 1.6 8.0 0.00 0.00 0.00 70 1016.7
20260506061031 6 79 1.6 6.4 0.00 0.00 0.00 70 1016.8
20260506060532 6 80 1.6 6.4 0.00 0.00 0.00 70 1016.8
20260506051031 5 75 1.6 4.8 0.00 0.00 0.00 69 1016.8
20260506050531 5 105 1.6 6.4 0.00 0.00 0.00 69 1016.9
20260506045030 5 76 1.6 4.8 0.00 0.00 0.00 69 1016.8
20260506044543 5 76 1.6 4.8 0.00 0.00 0.00 69 1016.8
20260506044030 5 58 1.6 4.8 0.00 0.00 0.00 69 1017.0
20260506043534 5 72 1.6 3.2 0.00 0.00 0.00 69 1016.8
20260506043043 5 76 0.0 3.2 0.00 0.00 0.00 69 1016.8
20260506042530 5 83 0.0 3.2 0.00 0.00 0.00 68 1017.0
20260506042030 5 85 1.6 4.8 0.00 0.00 0.00 68 1017.0
20260506041537 6 89 1.6 4.8 0.00 0.00 0.00 68 1017.0
20260506041030 6 65 1.6 6.4 0.00 0.00 0.00 68 1016.8
20260506040535 6 84 1.6 6.4 0.00 0.00 0.00 67 1016.8
20260506040045 6 55 3.2 6.4 0.00 0.00 0.00 67 1017.0
20260506035530 6 74 0.0 6.4 0.00 0.00 0.00 67 1016.8
20260506035030 6 72 3.2 8.0 0.00 0.00 0.00 67 1016.9
20260506034558 6 82 3.2 8.0 0.00 0.00 0.00 67 1017.0
20260506034030 6 89 3.2 8.0 0.00 0.00 0.00 67 1016.9
20260506033531 6 71 3.2 8.0 0.00 0.00 0.00 66 1016.9
20260506033055 6 108 3.2 6.4 0.00 0.00 0.00 66 1016.9
20260506032531 6 122 1.6 6.4 0.00 0.00 0.00 66 1017.0
20260506032031 6 82 3.2 6.4 0.00 0.00 0.00 66 1017.0
20260506031533 6 70 1.6 6.4 0.00 0.00 0.00 66 1016.9
20260506031031 6 98 3.2 6.4 0.00 0.00 0.00 66 1016.9
20260506030530 6 92 3.2 6.4 0.00 0.00 0.00 66 1017.0
20260506030044 6 54 1.6 6.4 0.00 0.00 0.00 66 1017.0
20260506025530 6 71 3.2 6.4 0.00 0.00 0.00 66 1017.1
20260506025030 6 94 3.2 6.4 0.00 0.00 0.00 66 1017.1
20260506024555 6 58 1.6 6.4 0.00 0.00 0.00 66 1017.1
20260506024031 6 60 3.2 6.4 0.00 0.00 0.00 66 1017.0
20260506023531 6 56 1.6 4.8 0.00 0.00 0.00 66 1017.0
20260506023040 6 77 1.6 6.4 0.00 0.00 0.00 66 1017.1
20260506022530 6 76 1.6 6.4 0.00 0.00 0.00 66 1017.1
20260506022031 6 77 3.2 8.0 0.00 0.00 0.00 65 1017.1
20260506021538 6 89 1.6 11.3 0.00 0.00 0.00 65 1017.0
20260506021031 6 71 3.2 11.3 0.00 0.00 0.00 65 1017.1
20260506020530 6 94 4.8 11.3 0.00 0.00 0.00 65 1017.0
20260506020035 6 86 3.2 8.0 0.00 0.00 0.00 65 1017.1
20260506015531 6 63 3.2 9.7 0.00 0.00 0.00 64 1017.1
20260506015031 6 77 3.2 11.3 0.00 0.00 0.00 65 1017.0
20260506014536 6 66 4.8 11.3 0.00 0.00 0.00 64 1017.0
20260506014030 6 102 4.8 6.4 0.00 0.00 0.00 64 1017.2
20260506013530 6 59 1.6 8.0 0.00 0.00 0.00 64 1017.3
20260506013059 6 96 3.2 8.0 0.00 0.00 0.00 64 1017.2
20260506012531 6 86 3.2 8.0 0.00 0.00 0.00 64 1017.3
20260506012031 6 77 1.6 8.0 0.00 0.00 0.00 64 1017.4
20260506011542 6 85 3.2 9.7 0.00 0.00 0.00 63 1017.4
20260506011030 6 72 3.2 9.7 0.00 0.00 0.00 63 1017.5
20260506010531 6 72 3.2 8.0 0.00 0.00 0.00 63 1017.5
20260506010037 6 82 3.2 8.0 0.00 0.00 0.00 63 1017.5
20260506005530 6 80 4.8 9.7 0.00 0.00 0.00 63 1017.5
20260506005030 6 68 4.8 9.7 0.00 0.00 0.00 63 1017.6
20260506004536 6 160 3.2 9.7 0.00 0.00 0.00 63 1017.6
20260506004030 7 72 4.8 11.3 0.00 0.00 0.00 63 1017.6
20260506003530 7 78 4.8 11.3 0.00 0.00 0.00 62 1017.6
20260506003042 7 68 6.4 12.9 0.00 0.00 0.00 62 1017.7
20260506002530 7 78 4.8 14.5 0.00 0.00 0.00 62 1017.7
20260506002030 7 95 6.4 14.5 0.00 0.00 0.00 63 1017.7
20260506001545 7 74 9.7 14.5 0.00 0.00 0.00 62 1017.5
20260506001030 7 71 4.8 9.7 0.00 0.00 0.00 63 1017.6
20260506000530 7 59 4.8 9.7 0.00 0.00 0.00 63 1017.6
20260506000037 7 72 3.2 11.3 0.00 0.00 0.00 63 1017.6
20260505235531 7 81 6.4 11.3 0.00 0.00 0.00 63 1017.5
20260505235031 7 70 4.8 9.7 0.00 0.00 0.00 63 1017.5
20260505234537 7 75 4.8 11.3 0.00 0.00 0.00 63 1017.5
20260505234030 7 49 3.2 11.3 0.00 0.00 0.00 63 1017.5
20260505233531 7 69 4.8 9.7 0.00 0.00 0.00 63 1017.6
20260505233043 7 84 3.2 9.7 0.00 0.00 0.00 63 1017.5
20260505232530 7 59 4.8 12.9 0.00 0.00 0.00 63 1017.6
20260505232030 7 108 3.2 12.9 0.00 0.00 0.00 64 1017.7
20260505231543 7 83 6.4 12.9 0.00 0.00 0.00 63 1017.7
20260505231033 7 56 4.8 16.1 0.00 0.00 0.00 63 1017.7
20260505230530 7 68 6.4 16.1 0.00 0.00 0.00 63 1017.7
20260505230051 7 68 8.0 16.1 0.00 0.00 0.00 63 1017.8
20260505225530 7 117 6.4 14.5 0.00 0.00 0.00 63 1017.9
20260505225030 7 63 6.4 12.9 0.00 0.00 0.00 63 1017.9
20260505224536 7 70 4.8 12.9 0.00 0.00 0.00 63 1017.8
20260505224030 7 78 4.8 14.5 0.00 0.00 0.00 63 1017.9
20260505223530 7 69 6.4 14.5 0.00 0.00 0.00 64 1017.8
20260505223054 7 96 3.2 8.0 0.00 0.00 0.00 64 1017.9